Location: Buckland
(65.9785°N, 161.1281°W)
Time: 21:20:37
(UTC+00:00)

SPROUT - Pass Details

Date: 23 January 2021
Orbit: 597 x 610 km, 97.9° (Epoch: 07 March)

Event Time Altitude Azimuth Distance (km) Brightness Sun altitude
Exits shadow 04:52:20 - 16° (NNE) 2,135 ? -17.3°
Reaches altitude 10° 04:53:31 10° 2° (N) 1,980 ? -17.4°
Maximum altitude 04:54:21 11° 350° (N) 1,946 ? -17.5°
Drops below altitude 10° 04:55:11 10° 339° (NNW) 1,981 ? -17.5°
Sets 04:59:15 0° 301° (WNW) 2,887 ? -17.9°
